Location: Brabourne
(51.1333°N, 1.0000°E)
Time: 12:02:38
(UTC+00:00)

IRS-1D - Pass Details

Date: 20 October 2021
Orbit: 739 x 817 km, 98.6° (Epoch: 30 November)

Event Time Altitude Azimuth Distance (km) Brightness Sun altitude
Rises 04:24:18 0° 5° (N) 3,296 7.0 -20.1°
Reaches altitude 10° 04:27:25 10° 346° (NNW) 2,347 5.9 -19.6°
Enters shadow 04:29:43 16° 320° (NW) 1,940 5.3 -19.2°
